This is the latest recevied weather packets stored in our database for station/object K1RFS. If no packets are shown the sender has not sent any weather packets the latest 10 day(s).
| Time | Temp. | Humidity | Pressure | Rain* | Wind** | Luminosity | Snow |
|---|---|---|---|---|---|---|---|
| 1777993009 | 10.56° C | 60% | 995.2 hPa | 0 mm | - | 58 W/m² | - |
| 1777992709 | 10.56° C | 59% | 995.2 hPa | 0 mm | - | 51 W/m² | - |
| 1777992406 | 10.56° C | 59% | 995.1 hPa | 0 mm | - | 42 W/m² | - |
| 1777992103 | 10.56° C | 60% | 995.2 hPa | 0 mm | - | 41 W/m² | - |
| 1777991801 | 10.56° C | 60% | 995.1 hPa | 0 mm | - | 36 W/m² | - |
| 1777991498 | 10.56° C | 61% | 995.2 hPa | 0 mm | - | 28 W/m² | - |
| 1777991195 | 10.56° C | 61% | 995.2 hPa | 0 mm | - | 26 W/m² | - |
| 1777990892 | 10.56° C | 61% | 995.2 hPa | 0 mm | - | 34 W/m² | - |
| 1777990590 | 10.56° C | 58% | 995.1 hPa | 0 mm | - | 39 W/m² | - |
| 1777989983 | 10.56° C | 58% | 995.1 hPa | 0 mm | - | 35 W/m² | - |
| 1777989680 | 11.11° C | 58% | 995 hPa | 0 mm | - | 22 W/m² | - |
| 1777989375 | 11.11° C | 57% | 995 hPa | 0 mm | - | 16 W/m² | - |
| 1777989073 | 11.11° C | 56% | 994.9 hPa | 0 mm | - | 12 W/m² | - |
| 1777988768 | 11.11° C | 57% | 994.9 hPa | 0 mm | - | 8 W/m² | - |
| 1777988466 | 11.11° C | 56% | 995 hPa | 0 mm | - | 6 W/m² | - |
| 1777988163 | 11.11° C | 57% | 994.8 hPa | 0 mm | - | 5 W/m² | - |
| 1777987858 | 11.67° C | 59% | 994.6 hPa | 0 mm | - | 5 W/m² | - |
| 1777987555 | 11.11° C | 59% | 994.5 hPa | 0 mm | - | 5 W/m² | - |
| 1777987253 | 11.67° C | 56% | 994.6 hPa | 0 mm | - | 6 W/m² | - |
| 1777986949 | 11.67° C | 55% | 994.4 hPa | 0 mm | - | 6 W/m² | - |
| 1777986647 | 11.67° C | 55% | 994.3 hPa | 0 mm | - | 5 W/m² | - |
| 1777986345 | 11.67° C | 54% | 994.1 hPa | 0 mm | - | 6 W/m² | - |
| 1777986043 | 11.67° C | 55% | 994.3 hPa | 0 mm | - | 6 W/m² | - |
| 1777985739 | 11.67° C | 58% | 994 hPa | 0 mm | - | 5 W/m² | - |
| 1777985436 | 11.67° C | 60% | 993.8 hPa | 0 mm | - | 4 W/m² | - |
* Rain latest hour (hover to see other rain measurements)
** Current wind speed in m/s (hover to see current wind gust speed)